Time,TemperatureF,DewpointF,PressureIn,WindDirection,WindDirectionDegrees,WindSpeedMPH,WindSpeedGustMPH,Humidity,HourlyPrecipIn,Conditions,Clouds,dailyrainin,SoftwareType,DateUTC
2013-06-18 00:06:00,77.8,57.0,30.00,South,185,6.0,10.0,48,0.00,,,0.00,weatherlink.com 1.10,2013-06-18 06:06:00,
2013-06-18 00:21:00,77.7,56.0,30.00,SSE,157,4.0,11.0,48,0.00,,,0.00,weatherlink.com 1.10,2013-06-18 06:21:00,
2013-06-18 00:36:00,77.4,56.0,30.00,SSE,159,5.0,9.0,48,0.00,,,0.00,weatherlink.com 1.10,2013-06-18 06:36:00,
2013-06-18 00:51:00,77.0,56.0,30.01,South,176,5.0,8.0,49,0.00,,,0.00,weatherlink.com 1.10,2013-06-18 06:51:00,
2013-06-18 01:06:00,76.6,57.0,30.01,South,178,3.0,6.0,51,0.00,,,0.00,weatherlink.com 1.10,2013-06-18 07:06:00,
2013-06-18 01:22:00,76.1,57.0,30.01,South,172,2.0,6.0,52,0.00,,,0.00,weatherlink.com 1.10,2013-06-18 07:22:00,
2013-06-18 01:37:00,76.0,57.0,30.01,South,187,6.0,8.0,52,0.00,,,0.00,weatherlink.com 1.10,2013-06-18 07:37:00,
2013-06-18 01:52:00,76.3,56.0,30.01,SSW,199,7.0,9.0,49,0.00,,,0.00,weatherlink.com 1.10,2013-06-18 07:52:00,
2013-06-18 02:07:00,76.4,56.0,30.01,SSE,166,7.0,11.0,49,0.00,,,0.00,weatherlink.com 1.10,2013-06-18 08:07:00,
2013-06-18 02:22:00,76.4,56.0,30.02,SSW,205,6.0,10.0,49,0.00,,,0.00,weatherlink.com 1.10,2013-06-18 08:22:00,
2013-06-18 02:37:00,76.0,56.0,30.01,South,169,9.0,10.0,50,0.00,,,0.00,weatherlink.com 1.10,2013-06-18 08:37:00,
2013-06-18 02:53:00,75.7,56.0,30.01,SSW,194,6.0,10.0,50,0.00,,,0.00,weatherlink.com 1.10,2013-06-18 08:53:00,
2013-06-18 03:08:00,75.3,56.0,30.01,South,176,5.0,9.0,51,0.00,,,0.00,weatherlink.com 1.10,2013-06-18 09:08:00,
2013-06-18 03:23:00,74.7,56.0,30.03,East,85,5.0,8.0,52,0.00,,,0.00,weatherlink.com 1.10,2013-06-18 09:23:00,
2013-06-18 03:38:00,74.0,56.0,30.03,ESE,116,1.0,5.0,53,0.00,,,0.00,weatherlink.com 1.10,2013-06-18 09:38:00,
2013-06-18 03:53:00,73.8,56.0,30.02,SW,223,4.0,6.0,53,0.00,,,0.00,weatherlink.com 1.10,2013-06-18 09:53:00,
2013-06-18 04:09:00,73.9,55.0,30.02,SSW,198,5.0,7.0,52,0.00,,,0.00,weatherlink.com 1.10,2013-06-18 10:09:00,
2013-06-18 04:24:00,73.8,56.0,30.02,SE,130,1.0,4.0,53,0.00,,,0.00,weatherlink.com 1.10,2013-06-18 10:24:00,
2013-06-18 04:39:00,73.1,55.0,30.04,East,86,2.0,7.0,53,0.00,,,0.00,weatherlink.com 1.10,2013-06-18 10:39:00,
2013-06-18 04:54:00,72.5,55.0,30.05,SE,128,1.0,6.0,55,0.00,,,0.00,weatherlink.com 1.10,2013-06-18 10:54:00,
2013-06-18 05:09:00,72.0,55.0,30.05,ESE,107,0.0,1.0,56,0.00,,,0.00,weatherlink.com 1.10,2013-06-18 11:09:00,
2013-06-18 05:25:00,71.5,55.0,30.05,ESE,117,0.0,4.0,57,0.00,,,0.00,weatherlink.com 1.10,2013-06-18 11:25:00,
2013-06-18 05:41:00,71.1,56.0,30.06,ESE,117,0.0,3.0,58,0.00,,,0.00,weatherlink.com 1.10,2013-06-18 11:41:00,
2013-06-18 05:56:00,71.2,55.0,30.07,SE,132,2.0,5.0,57,0.00,,,0.00,weatherlink.com 1.10,2013-06-18 11:56:00,
2013-06-18 06:11:00,71.0,55.0,30.07,SE,129,3.0,8.0,58,0.00,,,0.00,weatherlink.com 1.10,2013-06-18 12:11:00,
2013-06-18 06:26:00,71.0,56.0,30.07,SE,129,2.0,5.0,59,0.00,,,0.00,weatherlink.com 1.10,2013-06-18 12:26:00,
2013-06-18 06:41:00,70.5,56.0,30.08,ESE,117,2.0,7.0,60,0.00,,,0.00,weatherlink.com 1.10,2013-06-18 12:41:00,
2013-06-18 06:56:00,70.5,56.0,30.08,ESE,112,2.0,2.0,61,0.00,,,0.00,weatherlink.com 1.10,2013-06-18 12:56:00,
2013-06-18 07:12:00,71.4,57.0,30.08,ENE,69,1.0,5.0,60,0.00,,,0.00,weatherlink.com 1.10,2013-06-18 13:12:00,
2013-06-18 07:27:00,71.7,57.0,30.08,SE,138,1.0,4.0,59,0.00,,,0.00,weatherlink.com 1.10,2013-06-18 13:27:00,
2013-06-18 07:42:00,72.5,57.0,30.08,ENE,77,3.0,3.0,59,0.00,,,0.00,weatherlink.com 1.10,2013-06-18 13:42:00,
2013-06-18 07:57:00,73.7,58.0,30.09,East,92,6.0,6.0,57,0.00,,,0.00,weatherlink.com 1.10,2013-06-18 13:57:00,
2013-06-18 08:12:00,74.1,57.0,30.10,North,355,1.0,5.0,56,0.00,,,0.00,weatherlink.com 1.10,2013-06-18 14:12:00,
2013-06-18 08:28:00,74.8,57.0,30.10,SSE,167,3.0,5.0,54,0.00,,,0.00,weatherlink.com 1.10,2013-06-18 14:28:00,
2013-06-18 08:43:00,75.3,57.0,30.10,ESE,113,1.0,4.0,53,0.00,,,0.00,weatherlink.com 1.10,2013-06-18 14:43:00,
2013-06-18 08:58:00,77.5,57.0,30.10,ESE,111,1.0,5.0,50,0.00,,,0.00,weatherlink.com 1.10,2013-06-18 14:58:00,
2013-06-18 09:13:00,77.6,57.0,30.10,South,169,2.0,7.0,49,0.00,,,0.00,weatherlink.com 1.10,2013-06-18 15:13:00,
2013-06-18 09:28:00,79.7,57.0,30.10,ESE,105,0.0,8.0,46,0.00,,,0.00,weatherlink.com 1.10,2013-06-18 15:28:00,
2013-06-18 09:43:00,80.9,58.0,30.10,SW,225,4.0,7.0,45,0.00,,,0.00,weatherlink.com 1.10,2013-06-18 15:43:00,
2013-06-18 09:59:00,81.2,57.0,30.09,SSE,153,0.0,5.0,43,0.00,,,0.00,weatherlink.com 1.10,2013-06-18 15:59:00,
2013-06-18 10:14:00,84.7,56.0,30.09,ESE,121,8.0,10.0,38,0.00,,,0.00,weatherlink.com 1.10,2013-06-18 16:14:00,
2013-06-18 10:29:00,85.1,56.0,30.09,East,91,2.0,8.0,37,0.00,,,0.00,weatherlink.com 1.10,2013-06-18 16:29:00,
2013-06-18 10:44:00,86.6,56.0,30.08,SSE,147,8.0,11.0,35,0.00,,,0.00,weatherlink.com 1.10,2013-06-18 16:44:00,
2013-06-18 11:00:00,86.8,57.0,30.08,East,90,3.0,11.0,36,0.00,,,0.00,weatherlink.com 1.10,2013-06-18 17:00:00,
2013-06-18 11:15:00,88.8,56.0,30.08,South,171,6.0,11.0,33,0.00,,,0.00,weatherlink.com 1.10,2013-06-18 17:15:00,
2013-06-18 11:30:00,89.0,56.0,30.07,SSE,159,5.0,8.0,33,0.00,,,0.00,weatherlink.com 1.10,2013-06-18 17:30:00,
2013-06-18 11:45:00,90.1,55.0,30.07,SSE,159,4.0,13.0,31,0.00,,,0.00,weatherlink.com 1.10,2013-06-18 17:45:00,
2013-06-18 12:01:00,91.2,55.0,30.07,SE,130,10.0,14.0,30,0.00,,,0.00,weatherlink.com 1.10,2013-06-18 18:01:00,
2013-06-18 12:16:00,92.2,55.0,30.06,SE,140,5.0,14.0,29,0.00,,,0.00,weatherlink.com 1.10,2013-06-18 18:16:00,
2013-06-18 12:31:00,92.2,55.0,30.05,SE,142,12.0,13.0,29,0.00,,,0.00,weatherlink.com 1.10,2013-06-18 18:31:00,
2013-06-18 12:46:00,92.6,54.0,30.05,SW,224,5.0,14.0,27,0.00,,,0.00,weatherlink.com 1.10,2013-06-18 18:46:00,
2013-06-18 13:01:00,94.1,54.0,30.05,SE,138,2.0,15.0,26,0.00,,,0.00,weatherlink.com 1.10,2013-06-18 19:01:00,
2013-06-18 13:17:00,95.3,54.0,30.04,ESE,103,9.0,9.0,25,0.00,,,0.00,weatherlink.com 1.10,2013-06-18 19:17:00,
2013-06-18 13:32:00,96.5,54.0,30.03,ESE,105,12.0,14.0,24,0.00,,,0.00,weatherlink.com 1.10,2013-06-18 19:32:00,
2013-06-18 13:47:00,96.1,55.0,30.02,East,79,5.0,8.0,25,0.00,,,0.00,weatherlink.com 1.10,2013-06-18 19:47:00,
2013-06-18 14:02:00,97.4,53.0,30.02,SE,128,2.0,15.0,23,0.00,,,0.00,weatherlink.com 1.10,2013-06-18 20:02:00,
2013-06-18 14:17:00,97.5,52.0,30.01,ESE,107,10.0,16.0,22,0.00,,,0.00,weatherlink.com 1.10,2013-06-18 20:17:00,
2013-06-18 14:32:00,99.5,54.0,30.00,SE,132,6.0,13.0,22,0.00,,,0.00,weatherlink.com 1.10,2013-06-18 20:32:00,
2013-06-18 14:48:00,99.3,52.0,30.00,SSE,158,9.0,16.0,21,0.00,,,0.00,weatherlink.com 1.10,2013-06-18 20:48:00,
2013-06-18 15:03:00,99.9,50.0,29.99,East,98,9.0,10.0,19,0.00,,,0.00,weatherlink.com 1.10,2013-06-18 21:03:00,
2013-06-18 15:18:00,101.0,50.0,29.98,SSE,152,5.0,8.0,18,0.00,,,0.00,weatherlink.com 1.10,2013-06-18 21:18:00,
2013-06-18 15:33:00,98.8,51.0,29.97,SW,231,5.0,8.0,20,0.00,,,0.00,weatherlink.com 1.10,2013-06-18 21:33:00,
2013-06-18 15:48:00,101.0,47.0,29.97,SE,128,0.0,11.0,16,0.00,,,0.00,weatherlink.com 1.10,2013-06-18 21:48:00,
2013-06-18 16:04:00,101.9,47.0,29.96,SE,145,1.0,11.0,16,0.00,,,0.00,weatherlink.com 1.10,2013-06-18 22:04:00,
2013-06-18 16:19:00,100.1,46.0,29.95,East,97,6.0,9.0,16,0.00,,,0.00,weatherlink.com 1.10,2013-06-18 22:19:00,
2013-06-18 16:34:00,99.7,46.0,29.95,SSW,202,11.0,12.0,16,0.00,,,0.00,weatherlink.com 1.10,2013-06-18 22:34:00,
2013-06-18 16:49:00,100.4,44.0,29.94,SE,131,5.0,10.0,15,0.00,,,0.00,weatherlink.com 1.10,2013-06-18 22:49:00,
2013-06-18 17:04:00,101.6,44.0,29.93,ESE,104,4.0,9.0,14,0.00,,,0.00,weatherlink.com 1.10,2013-06-18 23:04:00,
2013-06-18 17:20:00,100.4,41.0,29.92,SSE,148,6.0,7.0,13,0.00,,,0.00,weatherlink.com 1.10,2013-06-18 23:20:00,
2013-06-18 17:35:00,100.4,43.0,29.92,West,277,0.0,8.0,14,0.00,,,0.00,weatherlink.com 1.10,2013-06-18 23:35:00,
2013-06-18 17:50:00,101.3,43.0,29.91,ESE,112,5.0,8.0,14,0.00,,,0.00,weatherlink.com 1.10,2013-06-18 23:50:00,
2013-06-18 18:05:00,101.0,43.0,29.91,SSE,151,2.0,8.0,14,0.00,,,0.00,weatherlink.com 1.10,2013-06-19 00:05:00,
2013-06-18 18:21:00,100.2,44.0,29.90,SSE,148,8.0,9.0,15,0.00,,,0.00,weatherlink.com 1.10,2013-06-19 00:21:00,
2013-06-18 18:36:00,99.5,45.0,29.90,SSE,162,5.0,10.0,16,0.00,,,0.00,weatherlink.com 1.10,2013-06-19 00:36:00,
2013-06-18 18:51:00,98.3,46.0,29.90,SE,128,5.0,10.0,17,0.00,,,0.00,weatherlink.com 1.10,2013-06-19 00:51:00,
2013-06-18 19:07:00,97.6,45.0,29.90,ESE,122,7.0,8.0,17,0.00,,,0.00,weatherlink.com 1.10,2013-06-19 01:07:00,
2013-06-18 19:22:00,96.7,46.0,29.90,SE,134,7.0,7.0,18,0.00,,,0.00,weatherlink.com 1.10,2013-06-19 01:22:00,
2013-06-18 19:37:00,95.3,47.0,29.90,SSE,166,4.0,9.0,19,0.00,,,0.00,weatherlink.com 1.10,2013-06-19 01:37:00,
2013-06-18 19:52:00,94.0,45.0,29.91,SE,127,5.0,10.0,19,0.00,,,0.00,weatherlink.com 1.10,2013-06-19 01:52:00,
2013-06-18 20:08:00,93.1,46.0,29.90,SSE,155,3.0,7.0,20,0.00,,,0.00,weatherlink.com 1.10,2013-06-19 02:08:00,
2013-06-18 20:23:00,92.0,46.0,29.90,SSE,155,5.0,5.0,21,0.00,,,0.00,weatherlink.com 1.10,2013-06-19 02:23:00,
2013-06-18 20:38:00,91.2,47.0,29.90,SSE,148,2.0,5.0,22,0.00,,,0.00,weatherlink.com 1.10,2013-06-19 02:38:00,
2013-06-18 20:53:00,90.3,49.0,29.90,SSE,150,1.0,4.0,24,0.00,,,0.00,weatherlink.com 1.10,2013-06-19 02:53:00,
2013-06-18 21:08:00,88.8,48.0,29.90,SSE,150,0.0,2.0,25,0.00,,,0.00,weatherlink.com 1.10,2013-06-19 03:08:00,
2013-06-18 21:23:00,87.2,48.0,29.90,SSE,156,0.0,3.0,26,0.00,,,0.00,weatherlink.com 1.10,2013-06-19 03:23:00,
2013-06-18 21:39:00,87.3,48.0,29.91,SSE,157,2.0,3.0,26,0.00,,,0.00,weatherlink.com 1.10,2013-06-19 03:39:00,
2013-06-18 21:54:00,87.6,51.0,29.92,SSE,157,2.0,16.0,29,0.00,,,0.00,weatherlink.com 1.10,2013-06-19 03:54:00,
2013-06-18 22:09:00,87.4,52.0,29.93,SSE,153,8.0,14.0,30,0.00,,,0.00,weatherlink.com 1.10,2013-06-19 04:09:00,
2013-06-18 22:24:00,87.0,54.0,29.93,ESE,119,5.0,10.0,32,0.00,,,0.00,weatherlink.com 1.10,2013-06-19 04:24:00,
2013-06-18 22:39:00,86.6,56.0,29.94,SE,146,2.0,10.0,36,0.00,,,0.00,weatherlink.com 1.10,2013-06-19 04:39:00,
2013-06-18 22:54:00,86.0,57.0,29.94,SSE,161,3.0,7.0,37,0.00,,,0.00,weatherlink.com 1.10,2013-06-19 04:54:00,
2013-06-18 23:10:00,85.7,58.0,29.94,South,170,6.0,8.0,39,0.00,,,0.00,weatherlink.com 1.10,2013-06-19 05:10:00,
2013-06-18 23:25:00,85.5,58.0,29.94,South,171,2.0,10.0,40,0.00,,,0.00,weatherlink.com 1.10,2013-06-19 05:25:00,
2013-06-18 23:40:00,85.2,59.0,29.94,South,171,5.0,10.0,41,0.00,,,0.00,weatherlink.com 1.10,2013-06-19 05:40:00,
2013-06-18 23:55:00,84.7,59.0,29.94,SSE,167,9.0,12.0,42,0.00,,,0.00,weatherlink.com 1.10,2013-06-19 05:55:00,